19.04.2024;22:00;4
19.04.2024;21:00;5
19.04.2024;20:00;6
19.04.2024;19:00;5
19.04.2024;18:00;5
19.04.2024;17:00;6
19.04.2024;16:00;6
19.04.2024;15:00;5
19.04.2024;14:00;5
19.04.2024;13:00;5
19.04.2024;12:00;5
19.04.2024;11:00;5
19.04.2024;10:00;6
19.04.2024;09:00;7
19.04.2024;08:00;10
19.04.2024;07:00;9
19.04.2024;06:00;9
19.04.2024;05:00;6
19.04.2024;04:00;6
19.04.2024;03:00;5
19.04.2024;02:00;6
19.04.2024;01:00;6
19.04.2024;00:00;5
18.04.2024;23:00;8
18.04.2024;22:00;5
18.04.2024;21:00;5
18.04.2024;20:00;4
18.04.2024;19:00;3
18.04.2024;18:00;4
18.04.2024;17:00;4
18.04.2024;16:00;3
18.04.2024;15:00;3
18.04.2024;14:00;3
18.04.2024;13:00;4
18.04.2024;12:00;5
18.04.2024;11:00;7
18.04.2024;10:00;7
18.04.2024;09:00;7
18.04.2024;08:00;7
18.04.2024;07:00;8
18.04.2024;06:00;7
18.04.2024;05:00;8
18.04.2024;04:00;6
18.04.2024;03:00;5
18.04.2024;02:00;5
18.04.2024;01:00;5
18.04.2024;00:00;5
17.04.2024;23:00;8
